Simultaneous Nadir Overpasses (SNOs) Predictions

Prediction of SNOs between AURA and NPP Satellite Orbit:

Table of predicted SNOs for the next 14.0 days since TLE Epoch: 12/20/2019
Index Date (AURA) Time (AURA) Lat,Lon (AURA) SZA (AURA ) Date (NPP) Time (NPP) Lat,Lon (NPP) SZA (NPP ) Distance(km) Time Diff (sec)
1 12/22/2019 03:41:24 79.67, 22.69 115.11 12/22/2019 03:41:13 79.68, 22.83 115.09 2.90 11
2 12/22/2019 04:30:47 -79.82,-168.56 65.11 12/22/2019 04:31:54 -79.82,-168.58 65.15 0.40 67
3 12/24/2019 19:08:33 -79.40, -31.03 64.48 12/24/2019 19:07:30 -79.39, -31.15 64.41 2.51 63
4 12/24/2019 19:57:51 79.69, 138.70 115.11 12/24/2019 19:58:05 79.69, 138.69 115.11 0.29 14
5 12/27/2019 11:24:57 -79.56, 86.01 64.73 12/27/2019 11:24:18 -79.56, 86.06 64.71 1.11 39
6 12/27/2019 12:14:19 79.71,-105.31 115.07 12/27/2019 12:14:58 79.70,-105.46 115.07 3.02 39
7 12/30/2019 03:41:24 -79.61,-157.76 64.88 12/30/2019 03:41:10 -79.61,-157.81 64.86 1.24 14
8 12/30/2019 04:30:43 79.86, 11.76 114.77 12/30/2019 04:31:46 79.86, 11.81 114.71 1.15 63
9 01/01/2020 19:08:29 79.46, 149.41 115.21 01/01/2020 19:07:22 79.46, 149.42 115.26 0.22 67




NCC Satellite Simultaneous Nadir Overpasses (SNOs) Prediction Service
